Location: Elende
(51.4317°N, 10.6316°E)
Time: 06:27:00
(UTC+00:00)

COSMOS 2406 - Pass Details

Date: 18 September 2020
Orbit: 844 x 862 km, 71.0° (Epoch: 18 October)

Event Time Altitude Azimuth Distance (km) Brightness Sun altitude
Rises 20:46:33 0° 327° (NNW) 3,416 7.5 -28.9°
Reaches altitude 10° 20:49:02 10° 324° (NW) 2,477 6.6 -29.2°
Enters shadow 20:54:23 58° 256° (WSW) 986 3.5 -29.7°
